Location: Greenwich
(51.4790°N, 0.0090°E)
Time: 23:41:13
(UTC+01:00)

Transit 4A - Pass Details

Date: 22 April 2024
Orbit: 871 x 971 km, 66.8° (Epoch: 17 May)

Event Time Altitude Azimuth Distance (km) Brightness Sun altitude
Rises 21:48:01 0° 320° (NW) 3,472 12.8 -13.9°
Reaches altitude 10° 21:50:31 10° 318° (NW) 2,529 11.6 -14.1°
Maximum altitude 21:56:17 67° 238° (WSW) 947 8.0 -14.8°
Enters shadow 22:00:26 20° 160° (SSE) 1,936 9.0 -15.3°
